Time,TemperatureF,DewpointF,PressureIn,WindDirection,WindDirectionDegrees,WindSpeedMPH,WindSpeedGustMPH,Humidity,HourlyPrecipIn,Conditions,Clouds,dailyrainin,SoftwareType,DateUTC
2013-05-03 00:02:00,41.0,37.0,30.17,North,360,0.0,5.0,85,0.01,,,0.18,,2013-05-03 05:02:00,
2013-05-03 00:12:00,41.0,37.0,30.17,North,360,0.0,5.0,85,0.01,,,0.18,,2013-05-03 05:12:00,
2013-05-03 00:21:00,41.0,37.0,30.16,North,9,1.0,4.0,86,0.01,,,0.18,,2013-05-03 05:21:00,
2013-05-03 00:32:00,40.0,36.0,30.16,NNE,30,0.0,4.0,86,0.00,,,0.18,,2013-05-03 05:32:00,
2013-05-03 00:42:00,40.0,36.0,30.16,NNE,30,0.0,4.0,86,0.00,,,0.18,,2013-05-03 05:42:00,
2013-05-03 00:52:00,40.0,36.0,30.15,North,9,2.0,5.0,86,0.01,,,0.19,,2013-05-03 05:52:00,
2013-05-03 01:01:00,40.0,36.0,30.14,NNE,29,0.0,6.0,86,0.02,,,0.20,,2013-05-03 06:01:00,
2013-05-03 01:11:00,40.0,36.0,30.14,NNE,29,0.0,6.0,86,0.02,,,0.20,,2013-05-03 06:11:00,
2013-05-03 01:21:00,40.0,36.0,30.14,North,5,2.0,7.0,86,0.03,,,0.21,,2013-05-03 06:21:00,
2013-05-03 01:32:00,40.0,36.0,30.14,North,355,0.0,6.0,86,0.04,,,0.22,,2013-05-03 06:32:00,
2013-05-03 01:42:00,40.0,36.0,30.14,North,355,0.0,6.0,86,0.04,,,0.22,,2013-05-03 06:42:00,
2013-05-03 01:52:00,40.0,36.0,30.14,NNW,342,0.0,4.0,86,0.04,,,0.23,,2013-05-03 06:52:00,
2013-05-03 02:01:00,40.0,36.0,30.13,NNE,18,1.0,6.0,86,0.06,,,0.26,,2013-05-03 07:01:00,
2013-05-03 02:11:00,40.0,36.0,30.13,NNE,18,1.0,6.0,86,0.06,,,0.26,,2013-05-03 07:11:00,
2013-05-03 02:21:00,40.0,36.0,30.12,North,5,2.0,7.0,86,0.07,,,0.28,,2013-05-03 07:21:00,
2013-05-03 02:31:00,40.0,36.0,30.12,North,360,1.0,5.0,86,0.07,,,0.29,,2013-05-03 07:31:00,
2013-05-03 02:42:00,40.0,36.0,30.12,North,360,1.0,5.0,86,0.07,,,0.29,,2013-05-03 07:42:00,
2013-05-03 02:52:00,40.0,36.0,30.11,North,355,0.0,3.0,86,0.07,,,0.30,,2013-05-03 07:52:00,
2013-05-03 03:01:00,39.0,35.0,30.11,NNE,28,0.0,3.0,86,0.06,,,0.32,,2013-05-03 08:01:00,
2013-05-03 03:11:00,39.0,35.0,30.11,NNE,28,0.0,3.0,86,0.06,,,0.32,,2013-05-03 08:11:00,
2013-05-03 03:21:00,39.0,35.0,30.11,NNE,15,1.0,5.0,86,0.04,,,0.32,,2013-05-03 08:21:00,
2013-05-03 03:32:00,39.0,35.0,30.10,NNE,27,1.0,7.0,86,0.05,,,0.34,,2013-05-03 08:32:00,
2013-05-03 03:42:00,39.0,35.0,30.10,NNE,27,1.0,7.0,86,0.05,,,0.34,,2013-05-03 08:42:00,
2013-05-03 03:53:00,39.0,35.0,30.09,North,5,2.0,8.0,86,0.06,,,0.36,,2013-05-03 08:53:00,
2013-05-03 04:01:00,39.0,35.0,30.08,NNE,26,0.0,6.0,86,0.05,,,0.37,,2013-05-03 09:01:00,
2013-05-03 04:12:00,39.0,35.0,30.08,NNE,26,0.0,6.0,86,0.05,,,0.37,,2013-05-03 09:12:00,
2013-05-03 04:21:00,39.0,35.0,30.08,North,5,1.0,4.0,86,0.05,,,0.37,,2013-05-03 09:21:00,
2013-05-03 04:32:00,39.0,35.0,30.09,North,9,0.0,3.0,86,0.04,,,0.38,,2013-05-03 09:32:00,
2013-05-03 04:42:00,39.0,35.0,30.09,North,9,0.0,3.0,86,0.04,,,0.38,,2013-05-03 09:42:00,
2013-05-03 04:53:00,39.0,35.0,30.07,East,80,1.0,5.0,86,0.02,,,0.38,,2013-05-03 09:53:00,
2013-05-03 05:02:00,39.0,35.0,30.08,East,98,0.0,2.0,86,0.01,,,0.38,,2013-05-03 10:02:00,
2013-05-03 05:12:00,39.0,35.0,30.08,East,98,0.0,2.0,86,0.01,,,0.38,,2013-05-03 10:12:00,
2013-05-03 05:22:00,39.0,35.0,30.08,NNW,346,0.0,4.0,86,0.01,,,0.38,,2013-05-03 10:22:00,
2013-05-03 05:32:00,39.0,35.0,30.07,SE,142,1.0,4.0,86,0.00,,,0.38,,2013-05-03 10:32:00,
2013-05-03 05:42:00,39.0,35.0,30.07,SE,142,1.0,4.0,86,0.00,,,0.38,,2013-05-03 10:42:00,
2013-05-03 05:52:00,39.0,35.0,30.06,North,5,0.0,3.0,86,0.00,,,0.38,,2013-05-03 10:52:00,
2013-05-03 06:02:00,38.0,34.0,30.06,North,350,0.0,2.0,86,0.00,,,0.38,,2013-05-03 11:02:00,
2013-05-03 06:11:00,38.0,34.0,30.06,North,350,0.0,2.0,86,0.00,,,0.38,,2013-05-03 11:11:00,
2013-05-03 06:22:00,38.0,34.0,30.06,NNW,334,0.0,4.0,86,0.00,,,0.38,,2013-05-03 11:22:00,
2013-05-03 06:32:00,38.0,34.0,30.06,North,355,0.0,5.0,86,0.01,,,0.39,,2013-05-03 11:32:00,
2013-05-03 06:42:00,38.0,34.0,30.06,North,355,0.0,5.0,86,0.01,,,0.39,,2013-05-03 11:42:00,
2013-05-03 06:52:00,38.0,34.0,30.06,NNE,22,0.0,2.0,86,0.04,,,0.42,,2013-05-03 11:52:00,
2013-05-03 07:01:00,38.0,34.0,30.06,ESE,104,0.0,3.0,86,0.06,,,0.44,,2013-05-03 12:01:00,
2013-05-03 07:11:00,38.0,34.0,30.06,ESE,104,0.0,3.0,86,0.06,,,0.44,,2013-05-03 12:11:00,
2013-05-03 07:21:00,38.0,34.0,30.06,North,10,0.0,2.0,86,0.10,,,0.48,,2013-05-03 12:21:00,
2013-05-03 07:32:00,38.0,34.0,30.05,North,10,0.0,2.0,87,0.12,,,0.51,,2013-05-03 12:32:00,
2013-05-03 07:42:00,38.0,34.0,30.05,North,10,0.0,2.0,87,0.12,,,0.51,,2013-05-03 12:42:00,
2013-05-03 07:52:00,38.0,34.0,30.05,North,355,0.0,3.0,87,0.12,,,0.54,,2013-05-03 12:52:00,
2013-05-03 08:01:00,39.0,35.0,30.04,NW,322,0.0,2.0,87,0.13,,,0.57,,2013-05-03 13:01:00,
2013-05-03 08:11:00,39.0,35.0,30.04,NW,322,0.0,2.0,87,0.13,,,0.57,,2013-05-03 13:11:00,
2013-05-03 08:22:00,39.0,35.0,30.03,North,355,1.0,5.0,87,0.11,,,0.59,,2013-05-03 13:22:00,
2013-05-03 08:32:00,39.0,35.0,30.03,NNW,337,0.0,5.0,87,0.10,,,0.61,,2013-05-03 13:32:00,
2013-05-03 08:42:00,39.0,35.0,30.03,NNW,337,0.0,5.0,87,0.10,,,0.61,,2013-05-03 13:42:00,
2013-05-03 08:52:00,39.0,35.0,30.03,NNW,343,1.0,4.0,87,0.10,,,0.64,,2013-05-03 13:52:00,
2013-05-03 09:02:00,39.0,35.0,30.02,North,351,1.0,5.0,87,0.09,,,0.66,,2013-05-03 14:02:00,
2013-05-03 09:11:00,39.0,35.0,30.02,North,351,1.0,5.0,87,0.09,,,0.66,,2013-05-03 14:11:00,
2013-05-03 09:22:00,39.0,35.0,30.02,North,355,1.0,6.0,87,0.12,,,0.67,,2013-05-03 14:22:00,
2013-05-03 09:32:00,39.0,35.0,30.02,North,360,0.0,4.0,87,0.12,,,0.70,,2013-05-03 14:32:00,
2013-05-03 09:42:00,39.0,35.0,30.02,North,360,0.0,4.0,87,0.12,,,0.70,,2013-05-03 14:42:00,
2013-05-03 09:52:00,39.0,35.0,30.01,North,11,1.0,4.0,87,0.13,,,0.73,,2013-05-03 14:52:00,
2013-05-03 10:01:00,39.0,35.0,29.99,North,355,1.0,4.0,87,0.13,,,0.75,,2013-05-03 15:01:00,
2013-05-03 10:11:00,39.0,35.0,29.99,North,355,1.0,4.0,87,0.13,,,0.75,,2013-05-03 15:11:00,
2013-05-03 10:22:00,39.0,35.0,30.03,WNW,294,1.0,8.0,87,0.16,,,0.70,,2013-05-03 15:22:00,
2013-05-03 10:32:00,39.0,35.0,30.02,NNW,344,1.0,4.0,87,0.15,,,0.72,,2013-05-03 15:32:00,
2013-05-03 10:43:00,39.0,35.0,30.02,NNW,344,1.0,4.0,87,0.15,,,0.72,,2013-05-03 15:43:00,
2013-05-03 10:53:00,40.0,36.0,30.02,NNW,344,0.0,3.0,87,0.15,,,0.75,,2013-05-03 15:53:00,
2013-05-03 11:03:00,40.0,37.0,30.02,NNW,348,0.0,1.0,88,0.14,,,0.76,,2013-05-03 16:03:00,
2013-05-03 11:12:00,40.0,37.0,30.02,NNW,348,0.0,1.0,88,0.14,,,0.76,,2013-05-03 16:12:00,
2013-05-03 11:22:00,40.0,36.0,30.02,NNW,348,0.0,2.0,87,0.09,,,0.79,,2013-05-03 16:22:00,
2013-05-03 11:32:00,40.0,36.0,30.01,North,360,1.0,4.0,87,0.11,,,0.83,,2013-05-03 16:32:00,
2013-05-03 11:42:00,40.0,36.0,30.01,North,360,1.0,4.0,87,0.11,,,0.83,,2013-05-03 16:42:00,
2013-05-03 11:52:00,40.0,36.0,30.00,North,355,1.0,4.0,87,0.10,,,0.85,,2013-05-03 16:52:00,
2013-05-03 12:02:00,41.0,38.0,30.00,NNW,347,0.0,3.0,88,0.13,,,0.89,,2013-05-03 17:02:00,
2013-05-03 12:12:00,41.0,38.0,30.00,NNW,347,0.0,3.0,88,0.13,,,0.89,,2013-05-03 17:12:00,
2013-05-03 12:23:00,41.0,37.0,29.99,North,355,1.0,6.0,87,0.14,,,0.93,,2013-05-03 17:23:00,
2013-05-03 12:32:00,41.0,38.0,29.99,North,360,1.0,4.0,88,0.12,,,0.95,,2013-05-03 17:32:00,
2013-05-03 12:42:00,41.0,38.0,29.99,North,360,1.0,4.0,88,0.12,,,0.95,,2013-05-03 17:42:00,
2013-05-03 12:52:00,41.0,37.0,29.98,NNW,348,1.0,4.0,87,0.12,,,0.98,,2013-05-03 17:52:00,
2013-05-03 13:01:00,41.0,38.0,29.98,North,355,1.0,5.0,88,0.10,,,0.99,,2013-05-03 18:01:00,
2013-05-03 13:12:00,41.0,38.0,29.98,North,355,1.0,5.0,88,0.10,,,0.99,,2013-05-03 18:12:00,
2013-05-03 13:21:00,41.0,37.0,29.98,North,360,0.0,5.0,87,0.10,,,1.03,,2013-05-03 18:21:00,
2013-05-03 13:32:00,41.0,37.0,29.98,WNW,296,2.0,5.0,87,0.12,,,1.07,,2013-05-03 18:32:00,
2013-05-03 13:42:00,41.0,37.0,29.98,WNW,296,2.0,5.0,87,0.12,,,1.07,,2013-05-03 18:42:00,
2013-05-03 13:52:00,42.0,39.0,29.97,NNW,345,0.0,2.0,88,0.14,,,1.12,,2013-05-03 18:52:00,
2013-05-03 14:01:00,42.0,39.0,29.96,North,360,0.0,3.0,88,0.15,,,1.14,,2013-05-03 19:01:00,
2013-05-03 14:11:00,42.0,39.0,29.96,North,360,0.0,3.0,88,0.15,,,1.14,,2013-05-03 19:11:00,
2013-05-03 14:21:00,43.0,40.0,30.69,North,355,1.0,6.0,88,0.12,,,1.16,,2013-05-03 19:21:00,
2013-05-03 14:32:00,43.0,40.0,29.95,North,350,0.0,4.0,88,0.10,,,1.17,,2013-05-03 19:32:00,
2013-05-03 14:42:00,43.0,40.0,29.95,North,350,0.0,4.0,88,0.10,,,1.17,,2013-05-03 19:42:00,
2013-05-03 14:52:00,43.0,40.0,29.95,North,355,1.0,4.0,88,0.07,,,1.19,,2013-05-03 19:52:00,
2013-05-03 15:02:00,44.0,41.0,29.95,North,355,0.0,3.0,88,0.07,,,1.21,,2013-05-03 20:02:00,
2013-05-03 15:11:00,44.0,41.0,29.95,North,355,0.0,3.0,88,0.07,,,1.21,,2013-05-03 20:11:00,
2013-05-03 15:21:00,44.0,41.0,29.92,North,360,0.0,1.0,88,0.09,,,1.25,,2013-05-03 20:21:00,
2013-05-03 15:31:00,45.0,42.0,29.92,NNE,19,0.0,2.0,88,0.09,,,1.26,,2013-05-03 20:31:00,
2013-05-03 15:42:00,45.0,42.0,29.92,NNE,19,0.0,2.0,88,0.09,,,1.26,,2013-05-03 20:42:00,
2013-05-03 15:52:00,45.0,42.0,29.92,NNE,30,0.0,2.0,88,0.08,,,1.27,,2013-05-03 20:52:00,
2013-05-03 16:01:00,46.0,43.0,29.91,NNE,14,0.0,2.0,88,0.05,,,1.27,,2013-05-03 21:01:00,
2013-05-03 16:11:00,46.0,43.0,29.91,NNE,14,0.0,2.0,88,0.05,,,1.27,,2013-05-03 21:11:00,
2013-05-03 16:21:00,46.0,43.0,29.91,NNW,346,0.0,5.0,88,0.03,,,1.28,,2013-05-03 21:21:00,
2013-05-03 16:33:00,46.0,43.0,29.92,NNW,340,0.0,5.0,88,0.08,,,1.34,,2013-05-03 21:33:00,
2013-05-03 16:42:00,46.0,43.0,29.92,NNW,340,0.0,5.0,88,0.08,,,1.34,,2013-05-03 21:42:00,
2013-05-03 16:53:00,46.0,43.0,29.91,NNW,340,0.0,1.0,88,0.11,,,1.38,,2013-05-03 21:53:00,
2013-05-03 17:02:00,46.0,43.0,29.90,NNW,340,0.0,2.0,88,0.13,,,1.40,,2013-05-03 22:02:00,
2013-05-03 17:12:00,46.0,43.0,29.90,NNW,340,0.0,2.0,88,0.13,,,1.40,,2013-05-03 22:12:00,
2013-05-03 17:22:00,47.0,44.0,29.90,NNW,340,0.0,2.0,88,0.14,,,1.42,,2013-05-03 22:22:00,
2013-05-03 17:32:00,47.0,44.0,29.90,NNW,340,0.0,3.0,88,0.11,,,1.45,,2013-05-03 22:32:00,
2013-05-03 17:42:00,47.0,44.0,29.90,NNW,340,0.0,3.0,88,0.11,,,1.45,,2013-05-03 22:42:00,
2013-05-03 17:52:00,47.0,44.0,29.89,NNW,340,0.0,1.0,88,0.08,,,1.46,,2013-05-03 22:52:00,
2013-05-03 18:02:00,48.0,45.0,29.89,North,355,0.0,0.0,88,0.10,,,1.50,,2013-05-03 23:02:00,
2013-05-03 18:11:00,48.0,45.0,29.89,North,355,0.0,0.0,88,0.10,,,1.50,,2013-05-03 23:11:00,
2013-05-03 18:21:00,48.0,45.0,29.89,North,355,1.0,3.0,88,0.13,,,1.55,,2013-05-03 23:21:00,
2013-05-03 18:31:00,48.0,45.0,29.88,NE,43,0.0,2.0,88,0.14,,,1.59,,2013-05-03 23:31:00,
2013-05-03 18:41:00,48.0,45.0,29.88,NE,43,0.0,2.0,88,0.14,,,1.59,,2013-05-03 23:41:00,
2013-05-03 18:52:00,48.0,45.0,29.88,North,11,0.0,2.0,88,0.15,,,1.61,,2013-05-03 23:52:00,
2013-05-03 19:01:00,48.0,45.0,29.88,North,9,0.0,4.0,88,0.11,,,1.62,,2013-05-04 00:01:00,
2013-05-03 19:11:00,48.0,45.0,29.88,North,9,0.0,4.0,88,0.11,,,1.62,,2013-05-04 00:11:00,
2013-05-03 19:22:00,48.0,45.0,29.88,North,5,0.0,1.0,88,0.07,,,1.62,,2013-05-04 00:22:00,
2013-05-03 19:31:00,48.0,45.0,29.88,North,355,0.0,2.0,88,0.03,,,1.62,,2013-05-04 00:31:00,
2013-05-03 19:41:00,48.0,45.0,29.88,North,355,0.0,2.0,88,0.03,,,1.62,,2013-05-04 00:41:00,
2013-05-03 19:52:00,49.0,46.0,29.88,North,355,0.0,3.0,89,0.01,,,1.62,,2013-05-04 00:52:00,
2013-05-03 20:01:00,49.0,46.0,29.87,NNW,335,0.0,4.0,89,0.00,,,1.62,,2013-05-04 01:01:00,
2013-05-03 20:11:00,49.0,46.0,29.87,NNW,335,0.0,4.0,89,0.00,,,1.62,,2013-05-04 01:11:00,
2013-05-03 20:21:00,49.0,46.0,29.87,NNE,19,0.0,2.0,89,0.00,,,1.62,,2013-05-04 01:21:00,
2013-05-03 20:31:00,49.0,46.0,29.87,WNW,296,0.0,2.0,89,0.00,,,1.62,,2013-05-04 01:31:00,
2013-05-03 20:41:00,49.0,46.0,29.87,WNW,296,0.0,2.0,89,0.00,,,1.62,,2013-05-04 01:41:00,
2013-05-03 20:52:00,50.0,47.0,29.87,NE,55,0.0,5.0,89,0.00,,,1.62,,2013-05-04 01:52:00,
2013-05-03 21:02:00,50.0,47.0,29.87,NNE,15,0.0,3.0,89,0.00,,,1.62,,2013-05-04 02:02:00,
2013-05-03 21:11:00,50.0,47.0,29.87,NNE,15,0.0,3.0,89,0.00,,,1.62,,2013-05-04 02:11:00,
2013-05-03 21:21:00,51.0,48.0,29.86,NNE,27,0.0,2.0,89,0.00,,,1.62,,2013-05-04 02:21:00,
2013-05-03 21:32:00,51.0,48.0,29.86,North,5,1.0,7.0,89,0.00,,,1.62,,2013-05-04 02:32:00,
2013-05-03 21:41:00,51.0,48.0,29.86,North,5,1.0,7.0,89,0.00,,,1.62,,2013-05-04 02:41:00,
2013-05-03 21:52:00,51.0,48.0,29.87,ESE,107,0.0,3.0,89,0.00,,,1.62,,2013-05-04 02:52:00,
2013-05-03 22:02:00,51.0,48.0,29.87,ENE,73,2.0,7.0,89,0.00,,,1.62,,2013-05-04 03:02:00,
2013-05-03 22:11:00,51.0,48.0,29.87,ENE,73,2.0,7.0,89,0.00,,,1.62,,2013-05-04 03:11:00,
2013-05-03 22:22:00,52.0,49.0,29.86,ENE,73,0.0,1.0,89,0.01,,,1.63,,2013-05-04 03:22:00,
2013-05-03 22:33:00,52.0,49.0,29.86,East,85,1.0,5.0,89,0.01,,,1.63,,2013-05-04 03:33:00,
2013-05-03 22:43:00,52.0,49.0,29.86,East,85,1.0,5.0,89,0.01,,,1.63,,2013-05-04 03:43:00,
2013-05-03 22:53:00,52.0,49.0,29.87,ESE,103,0.0,5.0,89,0.01,,,1.63,,2013-05-04 03:53:00,
2013-05-03 23:02:00,52.0,49.0,29.86,East,81,0.0,3.0,89,0.01,,,1.63,,2013-05-04 04:02:00,
2013-05-03 23:12:00,52.0,49.0,29.86,East,81,0.0,3.0,89,0.01,,,1.63,,2013-05-04 04:12:00,
2013-05-03 23:22:00,53.0,50.0,29.85,East,99,1.0,6.0,89,0.09,,,1.72,,2013-05-04 04:22:00,
2013-05-03 23:32:00,53.0,50.0,29.85,East,98,1.0,5.0,89,0.10,,,1.73,,2013-05-04 04:32:00,
2013-05-03 23:42:00,53.0,50.0,29.85,East,98,1.0,5.0,89,0.10,,,1.73,,2013-05-04 04:42:00,
2013-05-03 23:52:00,53.0,50.0,29.84,ESE,107,0.0,7.0,89,0.10,,,1.73,,2013-05-04 04:52:00,